Weather History for Pinedale, WY

Change the Weather History Date:

Monday, May 13, 2013

  Actual Average (KBPI) Record (KBPI)
Temperature  
Mean Temperature 55 °F 45 °F  
Max Temperature 77 °F 61 °F 80 °F (2013)
Min Temperature 33 °F 29 °F 17 °F (2000)
Degree Days  
Heating Degree Days 10 20  
Month to date heating degree days 285  
Since 1 July heating degree days 9816  
Cooling Degree Days 0 0  
Month to date cooling degree days 0  
Year to date cooling degree days 0  
Growing Degree Days 5 (Base 50)    
Moisture  
Dew Point 29 °F    
Average Humidity 43    
Maximum Humidity 93    
Minimum Humidity 15    
Precipitation  
Precipitation 0.00 in 0.03 in 0.75 in (1998)
Month to date precipitation 0.33  
Year to date precipitation 1.96  
Sea Level Pressure  
Sea Level Pressure 30.27 in    
Wind  
Wind Speed 7 mph (West)    
Max Wind Speed 20 mph    
Max Gust Speed 26 mph    
Visibility 10 miles    
Events      
T = Trace of Precipitation, MM = Missing Value Source: NWS Daily Summary

Daily Weather History Graph

Daily Weather History Graph

Search for Another Location

Airport:

Trip Planner

Search our weather history database for the weather conditions in past years. The results will help you decide how hot, cold, wet, or windy it might be!

Date:

Astronomy

May. 13, 2013 Rise Set
Actual Time 5:58 AM MDT 8:33 PM MDT
Civil Twilight 5:26 AM MDT 9:05 PM MDT
Nautical Twilight 4:45 AM MDT 9:46 PM MDT
Astronomical Twilight 4:00 AM MDT 10:32 PM MDT
Moon 8:46 AM MDT (5/13) 11:44 PM MDT (5/13)
Length of Visible Light 15h 39m
Length of Day
14h 35m
Waxing Crescent, 12% of the Moon is Illuminated
May 13
Waxing Crescent
May 17
First Quarter
May 24
Full
May 31
Last Quarter
Jun 8
New

Hourly Weather History & Observations

Time (MDT) Temp. Windchill Dew Point Humidity Pressure Visibility Wind Dir Wind Speed Gust Speed Precip Events Conditions
12:15 AM 46.4 °F 43.5 °F 32.0 °F 57% 30.32 in 10.0 mi WNW 5.8 mph - N/A   Scattered Clouds
12:35 AM 42.8 °F 39.3 °F 32.0 °F 66% 30.33 in 10.0 mi West 5.8 mph - N/A   Clear
12:55 AM 42.8 °F 39.3 °F 32.0 °F 66% 30.33 in 10.0 mi WNW 5.8 mph - N/A   Clear
1:15 AM 42.8 °F 38.0 °F 32.0 °F 66% 30.32 in 10.0 mi WNW 8.1 mph - N/A   Clear
1:35 AM 42.8 °F 39.3 °F 32.0 °F 66% 30.32 in 10.0 mi WNW 5.8 mph - N/A   Clear
1:55 AM 42.8 °F 38.0 °F 32.0 °F 66% 30.32 in 10.0 mi NW 8.1 mph - N/A   Clear
2:15 AM 42.8 °F 40.1 °F 32.0 °F 66% 30.32 in 10.0 mi North 4.6 mph - N/A   Clear
2:35 AM 42.8 °F 41.1 °F 32.0 °F 66% 30.32 in 10.0 mi NNW 3.5 mph - N/A   Clear
2:55 AM 42.8 °F 41.1 °F 32.0 °F 66% 30.32 in 10.0 mi WNW 3.5 mph - N/A   Scattered Clouds
3:15 AM 41.0 °F 39.0 °F 32.0 °F 70% 30.32 in 10.0 mi West 3.5 mph - N/A   Clear
3:35 AM 41.0 °F 38.0 °F 32.0 °F 70% 30.32 in 10.0 mi WNW 4.6 mph - N/A   Clear
3:55 AM 37.4 °F 33.8 °F 32.0 °F 81% 30.32 in 10.0 mi WNW 4.6 mph - N/A   Clear
4:15 AM 37.4 °F 31.4 °F 32.0 °F 81% 30.32 in 10.0 mi NW 8.1 mph - N/A   Clear
4:35 AM 37.4 °F 32.1 °F 32.0 °F 81% 30.32 in 10.0 mi NW 6.9 mph - N/A   Clear
4:55 AM 35.6 °F 31.7 °F 32.0 °F 87% 30.32 in 10.0 mi NW 4.6 mph - N/A   Clear
5:15 AM 35.6 °F 29.9 °F 32.0 °F 87% 30.32 in 10.0 mi NW 6.9 mph - N/A   Clear
5:35 AM 33.8 °F 29.6 °F 32.0 °F 93% 30.32 in 10.0 mi West 4.6 mph - N/A   Scattered Clouds
5:55 AM 33.8 °F 29.6 °F 32.0 °F 93% 30.32 in 10.0 mi WNW 4.6 mph - N/A   Clear
6:15 AM 35.6 °F 31.7 °F 32.0 °F 87% 30.32 in 10.0 mi WNW 4.6 mph - N/A   Clear
6:35 AM 35.6 °F 30.7 °F 32.0 °F 87% 30.33 in 10.0 mi WNW 5.8 mph - N/A   Clear
6:55 AM 37.4 °F - 32.0 °F 81% 30.34 in 10.0 mi Calm Calm - N/A   Clear
7:15 AM 41.0 °F 37.1 °F 33.8 °F 76% 30.34 in 10.0 mi NW 5.8 mph - N/A   Clear
7:35 AM 42.8 °F 39.3 °F 33.8 °F 70% 30.34 in 10.0 mi WNW 5.8 mph - N/A   Clear
7:55 AM 44.6 °F 42.2 °F 35.6 °F 71% 30.35 in 10.0 mi NW 4.6 mph - N/A   Clear
8:15 AM 48.2 °F - 35.6 °F 62% 30.35 in 10.0 mi Calm Calm - N/A   Clear
8:35 AM 51.8 °F - 33.8 °F 50% 30.35 in 10.0 mi Calm Calm - N/A   Clear
8:55 AM 53.6 °F - 35.6 °F 51% 30.35 in 10.0 mi Calm Calm - N/A   Clear
9:15 AM 55.4 °F - 35.6 °F 47% 30.35 in 10.0 mi Calm Calm - N/A   Clear
9:35 AM 57.2 °F - 33.8 °F 41% 30.35 in 10.0 mi Calm Calm - N/A   Clear
9:55 AM 60.8 °F - 33.8 °F 36% 30.34 in 10.0 mi Calm Calm - N/A   Clear
10:15 AM 62.6 °F - 33.8 °F 34% 30.34 in 10.0 mi Calm Calm - N/A   Clear
10:35 AM 64.4 °F - 32.0 °F 30% 30.34 in 10.0 mi Calm Calm - N/A   Clear
10:55 AM 68.0 °F - 30.2 °F 24% 30.33 in 10.0 mi NNE 3.5 mph - N/A   Clear
11:15 AM 69.8 °F - 32.0 °F 25% 30.32 in 10.0 mi SSE 6.9 mph - N/A   Clear
11:35 AM 69.8 °F - 30.2 °F 23% 30.32 in 10.0 mi North 5.8 mph - N/A   Clear
11:55 AM 71.6 °F - 30.2 °F 22% 30.31 in 10.0 mi East 6.9 mph - N/A   Clear
12:15 PM 71.6 °F - 28.4 °F 20% 30.30 in 10.0 mi WSW 8.1 mph 23.0 mph N/A   Scattered Clouds
12:35 PM 71.6 °F - 28.4 °F 20% 30.29 in 10.0 mi NW 10.4 mph 20.7 mph N/A   Scattered Clouds
12:55 PM 73.4 °F - 28.4 °F 19% 30.29 in 10.0 mi West 13.8 mph 21.9 mph N/A   Scattered Clouds
1:15 PM 73.4 °F - 28.4 °F 19% 30.27 in 10.0 mi South 9.2 mph 19.6 mph N/A   Scattered Clouds
1:35 PM 75.2 °F - 26.6 °F 17% 30.27 in 10.0 mi West 13.8 mph 20.7 mph N/A   Scattered Clouds
2:35 PM 73.4 °F - 26.6 °F 18% 30.25 in 10.0 mi WNW 13.8 mph 20.7 mph N/A   Scattered Clouds
2:55 PM 77.0 °F - 26.6 °F 16% 30.24 in 10.0 mi West 13.8 mph 19.6 mph N/A   Mostly Cloudy
3:15 PM 77.0 °F - 26.6 °F 16% 30.24 in 10.0 mi WSW 13.8 mph 25.3 mph N/A   Scattered Clouds
3:35 PM 77.0 °F - 26.6 °F 16% 30.23 in 10.0 mi West 17.3 mph 25.3 mph N/A   Scattered Clouds
3:55 PM 77.0 °F - 26.6 °F 16% 30.22 in 10.0 mi West 19.6 mph 26.5 mph N/A   Clear
4:15 PM 77.0 °F - 26.6 °F 16% 30.21 in 10.0 mi West 12.7 mph 23.0 mph N/A   Scattered Clouds
4:35 PM 77.0 °F - 26.6 °F 16% 30.21 in 10.0 mi West 18.4 mph 25.3 mph N/A   Scattered Clouds
4:55 PM 73.4 °F - 24.8 °F 16% 30.20 in 10.0 mi SW 12.7 mph 26.5 mph N/A   Scattered Clouds
5:35 PM 75.2 °F - 24.8 °F 15% 30.19 in 10.0 mi West 17.3 mph 24.2 mph N/A   Scattered Clouds
6:15 PM 73.4 °F - 24.8 °F 16% 30.18 in 10.0 mi West 17.3 mph 23.0 mph N/A   Clear
6:35 PM 73.4 °F - 24.8 °F 16% 30.18 in 10.0 mi SW 13.8 mph 23.0 mph N/A   Clear
6:55 PM 73.4 °F - 24.8 °F 16% 30.18 in 10.0 mi WSW 18.4 mph 23.0 mph N/A   Clear
7:15 PM 71.6 °F - 24.8 °F 17% 30.18 in 10.0 mi West 16.1 mph 25.3 mph N/A   Clear
7:35 PM 71.6 °F - 23.0 °F 16% 30.18 in 10.0 mi WSW 15.0 mph - N/A   Clear
7:55 PM 69.8 °F - 23.0 °F 17% 30.18 in 10.0 mi WSW 16.1 mph 19.6 mph N/A   Clear
8:15 PM 68.0 °F - 23.0 °F 18% 30.18 in 10.0 mi WSW 11.5 mph 21.9 mph N/A   Scattered Clouds
8:35 PM 66.2 °F - 24.8 °F 21% 30.17 in 10.0 mi WSW 11.5 mph 17.3 mph N/A   Scattered Clouds
8:55 PM 64.4 °F - 24.8 °F 22% 30.17 in 10.0 mi WSW 9.2 mph - N/A   Clear
9:15 PM 62.6 °F - 26.6 °F 26% 30.18 in 10.0 mi SW 8.1 mph - N/A   Clear
9:35 PM 60.8 °F - 26.6 °F 27% 30.18 in 10.0 mi SW 6.9 mph - N/A   Clear
9:55 PM 59.0 °F - 26.6 °F 29% 30.18 in 10.0 mi SW 6.9 mph - N/A   Clear
10:15 PM 59.0 °F - 26.6 °F 29% 30.17 in 10.0 mi SW 6.9 mph - N/A   Clear
10:35 PM 59.0 °F - 26.6 °F 29% 30.17 in 10.0 mi Calm Calm - N/A   Clear
10:55 PM 53.6 °F - 26.6 °F 35% 30.17 in 10.0 mi Calm Calm - N/A   Clear
11:15 PM 55.4 °F - 26.6 °F 33% 30.16 in 10.0 mi Calm Calm - N/A   Clear
11:35 PM 51.8 °F - 26.6 °F 38% 30.16 in 10.0 mi Calm Calm - N/A   Clear
11:55 PM 51.8 °F - 26.6 °F 38% 30.16 in 10.0 mi NNE 6.9 mph - N/A   Clear